Miscellaneous Local Product
Issued by NWS Hastings, NE

Home | Current Version | Previous Version | Text Only | Print | Product List | Glossary Off
Versions: 1 2 3 4 5 6 7 8 9 10 11 12 13 14 15 16 17 18 19 20 21 22 23 24 25 26 27 28 29 30 31 32 33 34 35 36 37 38 39 40 41 42 43 44 45 46 47 48 49 50

000
AXUS43 KGID 230102
MISGRI

GID CWA HOURLY WEATHER ROUNDUP
NATIONAL WEATHER SERVICE HASTINGS NE
800 PM CDT TUE APR 22 2014

NOTE: "FAIR" INDICATES FEW OR NO CLOUDS BELOW 12,000 FEET WITH NO
SIGNIFICANT WEATHER AND/OR OBSTRUCTIONS TO VISIBILITY.

...SOUTH CENTRAL NEBRASKA...

CITY           SKY/WX    TMP DP  RH WIND       PRES   REMARKS
GRAND ISLAND   PTCLDY    67  32  27 SE16      29.88F
HASTINGS       PTCLDY    68  29  23 SE15G25   29.86F
KEARNEY        CLEAR     66  34  30 SE20G26   29.85S
ORD            CLEAR     66  32  28 SE14      29.83F
YORK           MOCLDY    66  30  26 SE14      29.92S
AURORA         MOCLDY    69  32  25 S17       29.90F
LEXINGTON      PTCLDY    71  35  26 SE20G26   29.79F
HOLDREGE       CLEAR     67  32  26 SE23      29.82F
HEBRON         CLOUDY    67  29  24 SE13      29.92S

...NEBRASKA PANHANDLE...

CITY           SKY/WX    TMP DP  RH WIND       PRES   REMARKS
CHADRON        CLOUDY    64  54  69 E12       29.65F
ALLIANCE       MOCLDY    73  37  27 S10       29.64F
SCOTTSBLUFF    LGT RAIN  76  36  23 VRB5G24   29.67S
SIDNEY         PTCLDY    75  34  22 S13       29.68F

...WESTERN AND NORTH CENTRAL NEBRASKA...

CITY           SKY/WX    TMP DP  RH WIND       PRES   REMARKS
VALENTINE      PTCLDY    71  34  25 SE13      29.72S
AINSWORTH      CLEAR     69  34  27 S20G28    29.75F
ONEILL         PTCLDY    67  26  21 SE15G23   29.84F
BROKEN BOW     PTCLDY    66  34  30 SE18      29.80F
IMPERIAL       PTCLDY    73  42  32 SE26G37   29.70F
NORTH PLATTE   PTCLDY    70  30  22 SE15G26   29.74F
MCCOOK         CLEAR     72  37  28 SE23G33   29.75F

...EASTERN NEBRASKA...

CITY           SKY/WX    TMP DP  RH WIND       PRES   REMARKS
NORFOLK        PTCLDY    65  31  28 SE15      29.90F
SO SIOUX CITY  CLOUDY    64  34  32 SE13      29.96S
TEKAMAH        CLOUDY    65  31  28 SE13      29.96S
COLUMBUS       CLOUDY    66  34  30 SE14      29.93F
ALBION         CLEAR     65  30  26 SE12      29.89S
OMAHA EPPLEY   CLOUDY    66  32  28 SE10      29.96F
OFFUTT AFB     MOCLDY    64  35  34 E10       29.96F
MILLARD        MOCLDY    65  33  29 SE9       29.96F
LINCOLN        CLOUDY    69  30  23 SE16      29.95S
NEBRASKA CITY  MOCLDY    67  29  24 SE8       29.97F
BEATRICE       MOCLDY    67  30  25 SE9       29.94S
FALLS CITY     MOCLDY    63  34  33 E8        29.97F

...NORTHERN KANSAS...

CITY           SKY/WX    TMP DP  RH WIND       PRES   REMARKS
GOODLAND       PTCLDY    70  44  39 S25G33    29.74S
HILL CITY      MOCLDY    71  39  31 SE13      29.82F
PHILLIPSBURG   CLEAR     72  32  23 SE16      29.83F
SMITH CENTER   CLEAR     66  36  32 SE16      29.87F
BELOIT         CLEAR     70  30  23 SE12      29.89F
HAYS           MOCLDY   N/A N/A N/A SE21      29.86F
RUSSELL        MOCLDY    68  33  27 SE15      29.87F
CONCORDIA      MOCLDY    68  30  24 SE15      29.91F
SALINA         PTCLDY    70  30  22 SE12      29.92F
TOPEKA         CLEAR     65  34  31 E8        29.97F



USA.gov is the U.S. government's official web portal to all federal, state and local government web resources and services.